• In Czech Republic
  • List of Countries
  • For 7 days
  • Water Temperature
  • Satellite Maps
  • Weather Map
  • Weather Widgets
  • user-avatar
    Login

    Hourly Weather Canillo

    Today, 18 February, Sunday

    Time Temperature Precipitation Wind Pressure Humidity
    00:00 -6°C° 0 mm 2 mps 618 mmHg 86%
    01:00 -7°C° 0 mm 3 mps 618 mmHg 85%
    02:00 -7°C° 0 mm 3 mps 618 mmHg 85%
    03:00 -8°C° 0 mm 3 mps 618 mmHg 84%
    04:00 -8°C° 0 mm 3 mps 618 mmHg 83%
    05:00 -8°C° 0 mm 3 mps 618 mmHg 82%
    06:00 -8°C° 0 mm 3 mps 618 mmHg 81%
    07:00 -7°C° 0 mm 3 mps 618 mmHg 76%
    08:00 -5°C° 0 mm 3 mps 619 mmHg 71%
    09:00 -4°C° 0 mm 3 mps 619 mmHg 67%
    10:00 -2°C° 0 mm 3 mps 620 mmHg 64%
    11:00 0°C° 0 mm 3 mps 620 mmHg 62%
    12:00 +1°C° 0 mm 3 mps 620 mmHg 60%
    13:00 +1°C° 0 mm 3 mps 620 mmHg 62%
    14:00 +1°C° 0 mm 3 mps 619 mmHg 64%
    15:00 +2°C° 0 mm 2 mps 619 mmHg 66%
    16:00 +1°C° 0.2 mm 2 mps 619 mmHg 72%
    17:00 -1°C° 0.2 mm 2 mps 618 mmHg 77%
    18:00 -1°C° 0.2 mm 1 mps 617 mmHg 83%
    19:00 -1°C° 0.3 mm 1 mps 617 mmHg 84%
    20:00 -1°C° 0.3 mm 1 mps 617 mmHg 86%
    21:00 -1°C° 0.3 mm 1 mps 617 mmHg 87%
    22:00 -1°C° 0.3 mm 1 mps 617 mmHg 88%
    23:00 -1°C° 0.3 mm 1 mps 617 mmHg 89%

    Tomorrow, 19 February, Monday

    Time Temperature Precipitation Wind Pressure Humidity
    00:00 -1°C° 0.3 mm 1 mps 617 mmHg 90%
    01:00 -1°C° 0 mm 1 mps 617 mmHg 91%
    02:00 -1°C° 0 mm 1 mps 616 mmHg 92%
    03:00 -4°C° 0 mm 2 mps 616 mmHg 92%
    04:00 -4°C° 0 mm 2 mps 616 mmHg 92%
    05:00 -4°C° 0 mm 2 mps 616 mmHg 91%
    06:00 -4°C° 0 mm 2 mps 615 mmHg 91%
    07:00 -1°C° 0.2 mm 1 mps 616 mmHg 89%
    08:00 0°C° 0.2 mm 1 mps 617 mmHg 87%
    09:00 +1°C° 0.2 mm 1 mps 617 mmHg 84%
    10:00 +1°C° 0.5 mm 1 mps 617 mmHg 85%
    11:00 +2°C° 0.5 mm 1 mps 617 mmHg 85%
    12:00 +2°C° 0.5 mm 1 mps 617 mmHg 85%
    13:00 +1°C° 0.4 mm 2 mps 617 mmHg 86%
    14:00 +1°C° 0.4 mm 2 mps 616 mmHg 86%
    15:00 +1°C° 0.4 mm 2 mps 616 mmHg 87%
    16:00 -1°C° 0.1 mm 2 mps 616 mmHg 89%
    17:00 -1°C° 0.1 mm 2 mps 616 mmHg 90%
    18:00 -2°C° 0.1 mm 2 mps 615 mmHg 92%
    19:00 -2°C° 0.1 mm 2 mps 615 mmHg 92%
    20:00 -2°C° 0.1 mm 2 mps 615 mmHg 92%
    21:00 -2°C° 0.1 mm 2 mps 615 mmHg 93%
    22:00 -3°C° 0.1 mm 2 mps 615 mmHg 93%
    23:00 -3°C° 0.1 mm 2 mps 615 mmHg 93%

    Day after tomorrow, 20 February, Tuesday

    Time Temperature Precipitation Wind Pressure Humidity
    00:00 -3°C° 0.1 mm 2 mps 615 mmHg 93%
    01:00 -3°C° 0.1 mm 2 mps 615 mmHg 92%
    02:00 -4°C° 0.1 mm 3 mps 615 mmHg 92%
    03:00 -4°C° 0.1 mm 3 mps 615 mmHg 92%
    04:00 -4°C° 0.2 mm 3 mps 615 mmHg 91%
    05:00 -4°C° 0.2 mm 3 mps 615 mmHg 91%
    06:00 -4°C° 0.2 mm 3 mps 615 mmHg 91%
    07:00 -2°C° 0.3 mm 3 mps 615 mmHg 89%
    08:00 -2°C° 0.3 mm 3 mps 615 mmHg 87%
    09:00 -1°C° 0.3 mm 3 mps 616 mmHg 85%
    10:00 -1°C° 0.4 mm 3 mps 616 mmHg 84%
    11:00 0°C° 0.4 mm 3 mps 616 mmHg 84%
    12:00 +1°C° 0.4 mm 3 mps 616 mmHg 83%
    13:00 +1°C° 0.7 mm 3 mps 615 mmHg 82%
    14:00 +1°C° 0.7 mm 3 mps 615 mmHg 82%
    15:00 0°C° 0.7 mm 4 mps 615 mmHg 82%
    16:00 -1°C° 0.4 mm 4 mps 614 mmHg 83%
    17:00 -2°C° 0.4 mm 4 mps 614 mmHg 85%
    18:00 -4°C° 0.4 mm 5 mps 614 mmHg 86%
    19:00 -3°C° 0.3 mm 4 mps 614 mmHg 86%
    20:00 -3°C° 0.3 mm 4 mps 614 mmHg 87%
    21:00 -3°C° 0.3 mm 4 mps 614 mmHg 87%
    22:00 -4°C° 0.2 mm 4 mps 614 mmHg 87%
    23:00 -4°C° 0.2 mm 4 mps 613 mmHg 86%

    21 February, Wednesday

    Time Temperature Precipitation Wind Pressure Humidity
    00:00 -4°C° 0.2 mm 4 mps 613 mmHg 86%
    01:00 -5°C° 0.2 mm 4 mps 613 mmHg 86%
    02:00 -5°C° 0.2 mm 4 mps 612 mmHg 86%
    03:00 -5°C° 0.2 mm 4 mps 612 mmHg 87%
    04:00 -7°C° 0.4 mm 4 mps 612 mmHg 87%
    05:00 -7°C° 0.4 mm 4 mps 611 mmHg 87%
    06:00 -7°C° 0.4 mm 4 mps 611 mmHg 87%
    07:00 -7°C° 0.6 mm 4 mps 612 mmHg 85%
    08:00 -5°C° 0.6 mm 4 mps 612 mmHg 83%
    09:00 -5°C° 0.6 mm 4 mps 612 mmHg 82%
    10:00 -4°C° 0.2 mm 4 mps 612 mmHg 79%
    11:00 -4°C° 0.2 mm 4 mps 612 mmHg 77%
    12:00 -3°C° 0.2 mm 4 mps 612 mmHg 75%
    13:00 -3°C° 0.1 mm 4 mps 612 mmHg 73%
    14:00 -3°C° 0.1 mm 4 mps 612 mmHg 72%
    15:00 -4°C° 0.1 mm 4 mps 611 mmHg 71%
    16:00 -5°C° 0.1 mm 4 mps 611 mmHg 73%
    17:00 -6°C° 0.1 mm 3 mps 610 mmHg 76%
    18:00 -7°C° 0.1 mm 3 mps 610 mmHg 79%
    19:00 -7°C° 0 mm 3 mps 610 mmHg 80%
    20:00 -8°C° 0 mm 3 mps 610 mmHg 80%
    21:00 -8°C° 0 mm 3 mps 610 mmHg 81%
    22:00 -9°C° 0 mm 3 mps 609 mmHg 81%
    23:00 -9°C° 0 mm 3 mps 609 mmHg 81%

    22 February, Thursday

    Time Temperature Precipitation Wind Pressure Humidity
    00:00 -10°C° 0 mm 3 mps 608 mmHg 82%
    01:00 -10°C° 0 mm 3 mps 607 mmHg 82%
    02:00 -12°C° 0 mm 3 mps 607 mmHg 81%
    03:00 -12°C° 0 mm 3 mps 606 mmHg 81%
    04:00 -12°C° 0 mm 3 mps 606 mmHg 80%
    05:00 -13°C° 0 mm 3 mps 605 mmHg 80%
    06:00 -13°C° 0 mm 3 mps 605 mmHg 80%
    07:00 -12°C° 0 mm 3 mps 605 mmHg 76%
    08:00 -10°C° 0 mm 3 mps 606 mmHg 73%
    09:00 -9°C° 0 mm 3 mps 606 mmHg 70%
    10:00 -8°C° 0 mm 3 mps 606 mmHg 67%
    11:00 -7°C° 0 mm 3 mps 606 mmHg 65%
    12:00 -6°C° 0 mm 3 mps 607 mmHg 62%
    13:00 -6°C° 0 mm 3 mps 606 mmHg 63%
    14:00 -6°C° 0 mm 3 mps 606 mmHg 63%
    15:00 -6°C° 0 mm 3 mps 606 mmHg 64%
    16:00 -7°C° 0.1 mm 3 mps 605 mmHg 69%
    17:00 -7°C° 0.1 mm 2 mps 605 mmHg 73%
    18:00 -9°C° 0.1 mm 2 mps 605 mmHg 78%
    19:00 -9°C° 0 mm 2 mps 605 mmHg 79%
    20:00 -10°C° 0 mm 2 mps 605 mmHg 81%
    21:00 -12°C° 0 mm 2 mps 604 mmHg 82%
    22:00 -12°C° 0 mm 2 mps 604 mmHg 81%
    23:00 -13°C° 0 mm 2 mps 604 mmHg 80%

    23 February, Friday

    Time Temperature Precipitation Wind Pressure Humidity
    00:00 -13°C° 0 mm 2 mps 604 mmHg 79%
    01:00 -13°C° 0 mm 2 mps 603 mmHg 78%
    02:00 -13°C° 0 mm 2 mps 603 mmHg 78%
    03:00 -14°C° 0 mm 2 mps 603 mmHg 77%
    04:00 -14°C° 0 mm 2 mps 603 mmHg 76%
    05:00 -14°C° 0 mm 2 mps 603 mmHg 76%
    06:00 -14°C° 0 mm 2 mps 603 mmHg 75%
    07:00 -10°C° 0 mm 1 mps 604 mmHg 70%
    08:00 -8°C° 0 mm 1 mps 605 mmHg 66%
    09:00 -6°C° 0 mm 1 mps 606 mmHg 61%
    10:00 -4°C° 0 mm 1 mps 606 mmHg 59%
    11:00 -2°C° 0 mm 1 mps 606 mmHg 58%
    12:00 -1°C° 0 mm 1 mps 607 mmHg 56%
    13:00 -1°C° 0 mm 1 mps 606 mmHg 58%
    14:00 -1°C° 0 mm 1 mps 606 mmHg 60%
    15:00 -1°C° 0 mm 1 mps 606 mmHg 62%
    16:00 -3°C° 0 mm 1 mps 606 mmHg 69%
    17:00 -6°C° 0 mm 1 mps 605 mmHg 77%
    18:00 -7°C° 0 mm 1 mps 605 mmHg 85%
    19:00 -8°C° 0 mm 1 mps 605 mmHg 86%
    20:00 -8°C° 0 mm 1 mps 605 mmHg 87%
    21:00 -9°C° 0 mm 1 mps 605 mmHg 87%
    22:00 -9°C° 0 mm 1 mps 605 mmHg 86%
    23:00 -9°C° 0 mm 1 mps 605 mmHg 85%
    Show more